Voltar ao catálogo

STARLINK-2505

AtivoComunicaçõesVLEO
NORAD 48411·PAYLOAD·🇺🇸 United States

Lançado May 4, 2021 de Cape Canaveral Space Force Station

Loading…

Próximas Passagens (próximas 24 horas)

TLE

AtualizadoSource: CelesTrak SupGP

Época: Sep 14, 2026, 13:21 UTC

1 48411C 21038BL  26257.55673611  .00044376  00000+0  14279-2 0  2573
2 48411  53.1586 134.9107 0001000  97.2813  73.7688 15.31659831    16

Acompanhe STARLINK-2505 em tempo real com AllMySat

Download on the App Store